Wind_Speed
27 27 28 29 29 30 30 30 31 31 32 32 33 33 34 34 35 35 36 37 37 38 38 39 39 40 41 41 42 43 44 44 45 45 46 46 46 47 47 47 47 47 47
28 28 29 30 30 30 31 32 32 33 33 34 34 34 35 36 36 36 37 38 38 39 39 40 40 41 41 42 42 43 44 45 46 47 47 48 49 49 50 50 51 51 51
29 29 30 30 31 31 32 33 33 34 35 35 36 36 37 37 38 38 39 39 39 39 40 40 41 41 42 43 43 44 45 46 46 47 48 49 50 50 51 52 52 53 53
29 30 30 31 32 32 33 34 34 35 35 36 36 37 37 38 39 39 39 40 40 40 40 40 41 41 42 43 44 44 45 46 47 48 49 49 50 51 52 52 53 54 54
30 31 31 32 33 34 34 35 35 36 36 36 37 37 38 38 39 39 40 40 40 41 41 42 42 43 43 44 44 45 46 46 47 48 48 49 50 50 51 52 53 53 54
31 32 33 33 34 35 36 36 37 37 37 37 37 38 38 38 39 40 41 42 42 43 43 44 45 45 46 46 47 47 48 48 49 49 50 50 51 51 52 53 53 54 54
33 33 34 35 36 36 37 38 38 39 39 39 39 39 39 40 41 42 43 44 44 45 46 46 47 48 48 49 49 50 50 51 52 52 53 53 54 54 55 55 56 56 57
35 35 36 37 38 38 39 39 40 40 41 41 41 40 40 41 43 43 45 46 47 47 48 48 49 50 51 51 52 53 53 54 54 55 56 57 57 58 59 59 60 60 60
36 37 38 39 40 41 41 42 42 42 43 44 44 44 43 42 43 43 45 47 48 49 50 50 51 53 53 54 55 56 57 57 58 59 60 60 61 62 63 63 63 64 64
37 38 40 41 42 43 43 44 44 44 45 45 46 47 47 46 46 44 45 47 49 50 51 52 54 55 56 57 58 59 59 60 61 62 63 64 65 66 67 67 67 68 68
39 41 42 43 43 44 45 46 46 47 47 47 47 48 49 49 50 49 47 47 49 51 52 53 55 56 58 59 60 62 63 64 65 66 67 67 68 69 69 70 71 71 72
42 43 44 45 45 46 47 47 48 48 48 48 49 49 50 50 52 53 52 51 51 51 52 54 56 58 59 61 63 64 65 66 67 68 69 70 70 71 72 72 73 74 75
44 45 46 47 47 48 49 49 49 49 50 50 50 51 52 53 54 55 56 56 55 54 54 55 57 59 61 62 64 65 66 68 69 70 71 72 73 73 74 75 76 77 77
46 47 48 48 49 50 50 50 50 51 51 51 52 52 53 54 56 57 58 60 60 58 58 58 58 60 62 64 65 67 68 69 71 72 73 73 74 75 76 76 77 78 79
47 48 49 50 51 51 51 51 51 52 52 53 53 54 54 56 57 59 60 62 63 63 62 61 62 63 64 65 67 68 69 70 71 72 73 74 75 76 77 78 78 79 79
49 49 51 52 52 52 52 52 52 52 53 54 54 55 56 57 58 60 61 63 65 66 67 66 66 67 68 69 70 70 71 71 72 73 74 75 76 77 78 78 78 79 79
50 51 52 52 52 52 52 52 53 53 54 55 56 57 58 59 60 61 63 64 65 67 68 68 70 71 72 73 73 73 73 74 75 76 76 77 77 78 78 78 78 77 77
52 52 52 52 52 53 53 53 54 55 56 56 57 58 59 60 61 62 63 65 66 69 71 71 72 73 75 76 77 77 78 79 79 79 79 79 79 78 77 76 74 73 72
52 53 53 53 53 53 54 55 55 56 57 57 58 59 60 61 62 63 65 67 69 71 73 75 75 76 77 79 80 81 82 82 82 81 80 79 77 75 73 71 69 67 66
53 53 53 53 54 54 55 56 56 57 57 58 59 60 61 62 64 66 68 70 72 74 76 78 78 79 80 81 83 83 82 80 79 78 76 74 71 69 66 64 61 60 58
53 53 53 54 55 55 56 57 57 57 58 59 60 61 63 65 67 69 72 74 76 79 80 81 81 81 81 82 82 81 79 76 73 70 68 65 63 60 57 55 53 51 49
52 53 53 54 55 56 57 58 59 59 60 61 62 64 66 69 71 73 76 78 81 83 84 84 83 82 81 80 78 75 72 69 64 60 59 55 54 51 49 47 45 44 42
52 53 55 56 56 57 58 59 60 61 63 64 66 68 70 73 75 78 80 82 83 85 85 85 83 80 77 74 71 67 64 60 55 52 51 47 46 45 44 43 41 40 38
54 55 55 56 57 59 60 62 63 64 66 67 70 72 75 77 80 83 84 85 84 83 82 81 78 74 70 67 63 60 56 52 48 46 45 42 40 40 39 39 38 36 35
54 55 56 58 59 60 62 64 66 67 69 71 73 76 80 82 84 87 87 86 83 79 77 75 72 67 63 60 57 53 50 47 43 41 40 38 37 36 35 35 34 34 32
56 57 58 60 61 63 65 67 70 72 74 75 78 81 84 87 87 87 86 83 79 74 71 67 63 59 56 53 50 48 45 43 40 37 36 36 34 33 31 31 31 31 31
Wind_Direction
289 290 290 291 291 291 291 291 291 291 290 290 289 288 287 285 284 283 281 280 279 277 277 276 275 274 273 272 271 270 269 268 268 267 266 266 266 266 266 266 266 266 266
289 289 290 291 292 292 292 292 292 292 291 290 289 288 287 286 285 284 283 282 280 279 278 277 276 275 274 273 272 272 271 270 270 269 269 268 268 268 267 267 267 267 268
289 289 290 290 291 292 292 292 293 293 292 291 290 289 287 286 285 284 284 283 282 281 280 279 278 277 276 275 274 273 273 272 272 271 271 270 270 269 269 269 268 268 268
288 289 289 290 291 291 292 293 293 292 292 291 290 289 288 287 286 285 285 284 284 283 282 281 280 279 278 277 276 275 274 274 273 273 272 272 271 271 270 270 270 269 269
287 289 289 290 291 292 292 292 292 292 291 291 290 289 288 287 287 286 285 284 284 283 283 282 281 281 280 279 278 277 276 276 275 274 274 273 272 272 271 271 271 270 270
287 288 289 290 291 291 292 292 292 291 290 289 288 288 287 286 286 285 284 284 284 283 283 282 282 281 281 280 279 278 278 277 276 275 275 274 273 273 272 272 271 271 270
287 288 289 290 291 291 291 292 292 291 290 289 288 286 285 285 284 284 284 284 284 284 283 283 282 281 281 280 279 279 278 278 277 277 276 275 275 274 273 273 272 271 271
286 287 289 290 290 291 291 291 291 291 291 289 288 286 284 284 284 284 284 284 284 284 283 283 283 282 281 281 281 280 280 279 279 278 277 277 276 276 275 274 273 272 271
287 288 289 290 291 291 292 292 292 291 291 290 289 287 285 283 282 283 284 284 284 284 284 284 283 283 282 282 281 281 281 280 280 279 279 278 277 277 276 275 274 273 272
288 289 290 291 292 292 292 292 292 292 291 291 290 289 288 286 284 281 281 282 282 283 283 284 284 283 283 282 282 282 281 281 280 280 279 279 278 278 277 276 276 275 273
289 291 292 293 293 294 293 293 293 292 292 291 290 290 289 288 287 285 283 282 283 283 283 283 283 283 283 283 283 283 282 282 281 281 280 280 279 278 278 277 276 276 275
290 292 293 294 294 294 294 294 294 293 293 292 291 291 290 289 288 288 287 285 284 284 284 284 284 284 284 284 284 284 284 283 283 282 282 281 280 279 278 278 277 276 275
291 293 294 295 295 295 295 295 294 294 293 293 292 292 291 291 290 290 289 288 287 286 286 286 286 286 286 285 285 285 285 285 284 284 283 282 282 281 280 279 278 277 276
292 294 295 296 296 295 295 295 295 294 294 293 293 293 292 292 292 292 291 291 289 288 288 288 288 288 288 287 287 286 286 285 285 284 284 283 283 282 281 280 279 278 277
293 294 295 296 296 296 296 296 295 295 294 294 294 293 293 293 293 293 293 293 292 291 289 290 289 289 289 289 289 288 288 287 286 286 285 284 284 283 282 282 281 280 278
293 295 295 296 296 296 296 296 296 296 295 295 294 294 294 294 294 294 294 294 294 293 293 293 292 292 292 291 291 290 289 288 287 287 286 286 285 284 283 283 282 281 280
294 295 296 296 296 296 296 296 296 296 296 295 295 295 294 294 294 294 295 295 295 295 295 295 295 295 295 294 294 293 292 291 290 289 288 287 287 286 285 284 283 282 280
295 295 296 296 296 296 296 296 296 296 296 296 296 295 295 295 295 296 296 296 296 296 296 296 296 296 296 295 295 294 294 293 292 291 290 289 288 287 286 284 283 281 279
295 296 296 296 297 297 297 297 297 297 297 297 297 296 296 296 297 297 297 297 297 298 298 298 297 297 296 296 295 295 295 294 293 292 291 290 289 287 286 284 282 281 279
296 296 297 297 297 297 297 297 298 298 298 298 298 298 298 298 298 298 299 299 299 299 299 298 298 297 297 297 296 295 294 293 293 292 291 289 288 287 285 283 281 279 277
296 297 297 297 298 298 298 298 299 299 299 299 299 299 299 299 300 300 300 300 300 300 299 299 299 298 298 297 296 295 294 293 292 291 289 288 287 286 284 282 280 278 276
297 297 298 299 299 299 300 300 300 300 300 300 300 300 300 301 301 301 301 302 302 301 301 300 300 299 298 297 296 295 294 292 291 289 287 286 285 284 283 281 278 276 274
298 298 299 299 300 300 300 301 301 301 301 301 301 302 302 302 302 302 302 303 303 302 301 301 300 299 298 297 295 294 293 292 291 288 286 285 283 282 281 280 278 276 273
299 299 300 300 301 301 301 301 301 302 302 303 303 303 303 303 303 303 303 303 303 302 300 300 299 298 297 296 294 294 292 291 290 288 287 284 281 280 279 278 277 275 272
299 300 301 301 301 301 301 302 302 302 303 303 304 304 304 304 304 304 304 303 302 301 299 299 298 297 296 295 294 293 292 291 289 288 286 284 280 278 277 276 275 273 271
300 301 301 302 302 302 302 302 303 303 304 304 305 306 306 306 306 305 304 303 302 300 299 298 297 296 295 293 292 291 291 290 289 287 285 283 280 278 275 274 272 271 270
Height
5821 5819 5818 5817 5815 5814 5812 5811 5810 5808 5807 5806 5804 5803 5802 5801 5800 5798 5797 5796 5796 5795 5795 5794 5794 5794 5793 5793 5793 5793 5793 5793 5793 5794 5794 5794 5795 5795 5795 5796 5796 5797 5797
5815 5814 5812 5811 5809 5808 5806 5805 5803 5802 5800 5799 5797 5796 5795 5793 5792 5790 5789 5788 5787 5787 5786 5786 5785 5785 5784 5784 5783 5783 5783 5783 5783 5783 5783 5783 5784 5784 5784 5785 5785 5786 5786
5809 5808 5806 5805 5803 5801 5800 5798 5796 5795 5793 5792 5790 5788 5787 5785 5783 5782 5781 5780 5779 5778 5777 5776 5776 5775 5774 5774 5773 5773 5772 5772 5772 5772 5772 5772 5772 5772 5772 5773 5773 5773 5774
5803 5802 5800 5798 5797 5795 5793 5791 5789 5788 5786 5784 5782 5781 5779 5777 5775 5773 5772 5771 5769 5768 5767 5766 5766 5765 5764 5763 5763 5762 5761 5761 5761 5760 5760 5760 5760 5760 5760 5760 5760 5760 5761
5797 5795 5794 5792 5790 5788 5786 5784 5782 5781 5779 5777 5775 5773 5771 5769 5767 5765 5763 5762 5760 5759 5757 5756 5755 5754 5753 5752 5751 5751 5750 5749 5749 5749 5748 5748 5748 5747 5747 5747 5747 5747 5747
5791 5789 5787 5785 5783 5781 5779 5777 5775 5773 5771 5769 5767 5765 5763 5760 5758 5756 5754 5753 5751 5749 5748 5746 5745 5743 5742 5741 5740 5739 5738 5737 5736 5736 5735 5735 5735 5734 5734 5734 5734 5734 5734
5784 5782 5780 5778 5776 5774 5772 5769 5767 5765 5763 5761 5759 5758 5755 5752 5750 5747 5745 5743 5741 5739 5737 5736 5734 5732 5731 5729 5728 5726 5725 5724 5723 5722 5722 5721 5721 5720 5720 5720 5720 5720 5720
5777 5775 5773 5771 5769 5766 5764 5761 5759 5756 5753 5751 5750 5748 5747 5745 5741 5739 5736 5733 5731 5728 5726 5724 5722 5720 5718 5717 5715 5713 5712 5711 5709 5708 5707 5706 5706 5705 5705 5705 5704 5704 5704
5770 5768 5766 5763 5761 5758 5755 5752 5750 5747 5744 5741 5739 5737 5736 5735 5733 5731 5727 5723 5720 5717 5715 5712 5710 5707 5705 5703 5701 5700 5698 5696 5694 5693 5691 5690 5689 5688 5688 5687 5687 5687 5687
5762 5760 5758 5755 5752 5749 5746 5743 5740 5737 5734 5731 5728 5725 5723 5721 5720 5721 5719 5714 5710 5707 5704 5700 5697 5694 5691 5689 5687 5685 5683 5680 5678 5676 5675 5673 5672 5671 5669 5669 5668 5668 5668
5754 5751 5749 5746 5743 5740 5736 5733 5730 5727 5723 5720 5717 5714 5711 5708 5705 5704 5706 5703 5699 5695 5692 5688 5684 5680 5677 5674 5671 5669 5666 5664 5661 5659 5657 5655 5653 5652 5650 5649 5648 5647 5647
5745 5742 5739 5736 5733 5730 5726 5723 5719 5715 5712 5708 5705 5702 5698 5695 5692 5689 5688 5688 5686 5684 5679 5675 5670 5666 5662 5658 5655 5652 5649 5646 5643 5640 5637 5635 5633 5631 5630 5628 5627 5626 5625
5736 5733 5729 5726 5723 5719 5715 5712 5708 5704 5700 5697 5693 5689 5685 5682 5678 5675 5672 5670 5669 5668 5665 5661 5655 5650 5645 5642 5638 5634 5631 5627 5623 5620 5617 5614 5612 5610 5608 5606 5604 5603 5602
5726 5723 5719 5715 5712 5708 5704 5700 5696 5692 5688 5684 5680 5676 5672 5668 5664 5660 5656 5653 5651 5651 5648 5645 5639 5633 5628 5624 5620 5615 5611 5607 5603 5599 5596 5592 5589 5586 5584 5582 5580 5578 5577
5716 5713 5709 5705 5701 5697 5693 5688 5684 5680 5676 5672 5667 5663 5659 5654 5650 5645 5640 5636 5632 5630 5630 5627 5621 5616 5610 5606 5600 5595 5591 5586 5582 5578 5574 5570 5566 5563 5560 5557 5555 5553 5551
5705 5701 5698 5693 5689 5685 5681 5677 5672 5668 5663 5659 5654 5650 5645 5640 5636 5630 5625 5620 5614 5610 5608 5606 5601 5595 5590 5585 5579 5574 5569 5565 5560 5555 5551 5547 5543 5539 5535 5532 5529 5527 5525
5694 5690 5686 5682 5677 5673 5668 5664 5660 5655 5650 5645 5641 5636 5631 5626 5621 5615 5610 5604 5598 5592 5588 5586 5579 5573 5566 5561 5556 5550 5545 5540 5536 5530 5526 5521 5517 5513 5510 5506 5503 5501 5499
5682 5678 5674 5669 5665 5660 5656 5651 5647 5642 5637 5632 5627 5621 5616 5611 5605 5599 5594 5588 5582 5575 5569 5566 5561 5553 5546 5538 5532 5526 5520 5515 5510 5504 5499 5495 5490 5486 5483 5480 5477 5475 5473
5670 5666 5661 5657 5652 5647 5643 5638 5633 5628 5623 5617 5612 5606 5601 5595 5590 5583 5577 5571 5564 5557 5550 5544 5540 5533 5525 5516 5509 5503 5496 5490 5484 5478 5473 5468 5464 5460 5457 5454 5452 5450 5449
5657 5653 5648 5643 5639 5634 5629 5624 5619 5614 5609 5603 5597 5591 5585 5579 5573 5566 5560 5553 5545 5538 5530 5523 5517 5511 5503 5494 5485 5478 5473 5466 5460 5453 5447 5443 5439 5436 5433 5431 5429 5428 5427
5645 5640 5635 5630 5625 5620 5615 5610 5605 5600 5594 5588 5582 5575 5569 5562 5555 5548 5540 5533 5524 5516 5508 5500 5494 5487 5479 5470 5461 5453 5448 5443 5438 5430 5425 5421 5417 5415 5412 5410 5409 5409 5408
5632 5627 5622 5617 5611 5606 5600 5595 5590 5585 5579 5573 5566 5559 5552 5545 5537 5529 5520 5511 5502 5492 5483 5476 5469 5462 5454 5445 5437 5430 5424 5420 5418 5413 5406 5404 5399 5398 5395 5394 5393 5393 5393
5619 5614 5609 5603 5598 5591 5586 5580 5574 5569 5563 5556 5549 5542 5534 5526 5516 5508 5500 5491 5481 5469 5458 5450 5444 5437 5429 5421 5414 5409 5403 5399 5397 5394 5389 5389 5385 5383 5381 5380 5379 5379 5380
5606 5601 5595 5589 5583 5577 5570 5564 5558 5553 5546 5539 5531 5522 5514 5506 5495 5485 5477 5469 5459 5448 5436 5427 5419 5413 5406 5400 5393 5389 5385 5383 5382 5378 5374 5374 5372 5370 5369 5368 5367 5367 5368
5593 5587 5581 5575 5569 5562 5555 5548 5541 5535 5529 5522 5513 5503 5492 5484 5474 5462 5452 5444 5436 5426 5415 5406 5398 5392 5386 5381 5375 5372 5369 5367 5367 5366 5361 5360 5360 5359 5358 5357 5356 5356 5357
5579 5573 5567 5560 5553 5547 5539 5531 5523 5517 5511 5503 5494 5484 5471 5459 5449 5437 5426 5417 5410 5403 5395 5388 5381 5374 5369 5365 5360 5357 5354 5353 5352 5353 5350 5348 5348 5347 5348 5348 5347 5347 5348